Temperature
6 7 7 7 7 7 7 6 6 6 6 6 5 5 5 5 5 5 5 5 5 5 5 6 6 6 6 6 6 6 7 7 7 7 7 7 7 7 7 7 7 7 7 7
6 7 7 7 7 7 7 7 7 6 6 6 6 6 5 5 5 5 5 5 5 5 5 5 5 5 6 6 6 6 6 6 6 6 6 6 6 6 6 6 6 6 6 6
5 6 6 6 7 7 7 7 7 7 6 6 5 5 5 5 5 5 5 5 5 5 5 5 5 5 5 5 5 5 5 5 5 5 5 5 5 5 5 5 5 5 5 5
4 5 6 7 7 7 7 7 7 7 6 5 5 5 5 6 5 5 5 5 5 5 4 4 4 4 4 5 5 5 5 4 4 4 5 4 5 5 4 4 4 4 4 4
4 4 5 7 7 7 7 7 6 6 5 5 5 5 4 5 5 5 5 5 4 4 4 4 4 4 4 4 4 4 4 4 4 4 4 4 4 4 4 4 4 4 3 3
4 5 6 7 7 7 7 7 6 6 5 5 5 4 4 5 5 5 5 4 4 4 4 4 4 4 4 4 4 4 3 3 3 3 3 3 3 3 3 3 3 3 3 3
4 4 5 6 7 7 6 7 7 7 6 5 5 5 6 5 5 5 4 4 4 4 4 3 3 3 3 3 3 3 3 3 2 2 2 2 2 2 2 2 2 2 2 2
3 4 5 6 6 6 6 7 7 7 7 7 7 6 6 5 5 4 4 4 4 4 3 3 3 3 3 3 2 2 2 2 2 2 2 2 1 1 1 1 1 1 1 1
3 5 6 7 7 8 8 7 7 7 7 7 6 6 5 5 4 4 4 4 3 3 3 3 3 2 2 2 2 1 1 1 1 1 1 1 1 1 0 0 0 0 0 0
3 4 5 7 8 8 8 8 8 7 7 7 6 6 5 5 4 4 4 3 3 3 3 2 2 2 1 1 1 1 1 1 1 1 1 0 0 -0 -0 -1 -1 -1 -1 -1
3 4 5 7 8 8 8 7 7 7 7 6 6 5 5 4 4 4 3 3 3 3 2 2 2 1 1 1 1 1 0 0 0 -0 -0 -0 -1 -1 -1 -1 -2 -2 -2 -2
4 5 4 7 8 8 7 7 7 7 6 6 6 5 5 4 4 4 3 3 3 2 2 2 1 1 1 0 0 -0 -0 -0 -1 -1 -1 -1 -1 -1 -1 -2 -2 -2 -2 -2
7 8 8 8 8 7 7 7 7 6 6 6 5 5 5 4 4 3 3 3 2 2 1 1 1 1 0 -0 -0 -1 -1 -1 -1 -1 -2 -2 -3 -3 -2 -2 -2 -2 -2 -3
7 7 6 7 7 7 7 6 6 6 5 5 5 4 4 4 3 3 3 2 2 1 1 1 0 0 -0 -0 -1 -1 -1 -2 -2 -2 -3 -3 -3 -4 -4 -4 -3 -3 -3 -3
6 6 6 7 7 6 6 6 5 5 5 4 4 4 4 3 3 3 2 2 1 1 1 0 -0 -0 -1 -1 -1 -2 -2 -2 -3 -3 -3 -4 -4 -4 -4 -4 -4 -4 -4 -3
6 6 6 6 6 6 5 5 5 5 5 4 4 4 3 3 3 2 2 1 1 1 0 -0 -0 -1 -1 -1 -2 -2 -3 -3 -3 -4 -4 -4 -4 -5 -5 -5 -5 -5 -5 -4
4 5 5 5 5 5 5 5 5 5 4 4 4 3 3 2 2 2 1 1 0 0 -0 -1 -1 -2 -2 -2 -2 -3 -3 -3 -4 -4 -4 -5 -5 -5 -5 -5 -5 -5 -5 -5
5 5 5 5 5 5 5 5 4 4 4 4 3 3 2 2 2 1 1 0 -0 -0 -1 -1 -2 -2 -2 -3 -3 -3 -4 -4 -4 -5 -5 -5 -6 -6 -6 -6 -6 -6 -6 -5
5 4 5 5 5 5 5 4 4 4 3 3 2 2 2 2 1 1 0 -0 -0 -1 -1 -2 -2 -3 -3 -3 -4 -4 -4 -5 -5 -5 -6 -6 -6 -6 -6 -6 -7 -6 -6 -6
4 4 4 4 4 4 4 4 4 3 3 2 2 2 1 1 1 0 -0 -1 -1 -1 -2 -2 -3 -3 -3 -4 -4 -4 -5 -5 -6 -6 -6 -6 -7 -7 -7 -7 -7 -7 -7 -7
4 4 4 4 4 4 3 3 3 3 2 2 2 1 1 1 0 -0 -1 -1 -1 -2 -2 -3 -3 -3 -4 -4 -5 -5 -5 -6 -6 -6 -7 -7 -7 -7 -7 -7 -7 -7 -7 -7
4 3 3 3 3 3 3 3 2 2 2 1 1 1 0 0 -0 -1 -1 -2 -2 -2 -3 -3 -4 -4 -4 -5 -5 -5 -6 -6 -6 -7 -7 -7 -7 -8 -8 -8 -8 -8 -8 -8
3 3 3 3 3 3 2 2 2 1 1 1 1 0 0 -0 -1 -1 -2 -2 -2 -3 -3 -4 -4 -4 -5 -5 -5 -6 -6 -6 -7 -7 -7 -7 -8 -8 -8 -8 -8 -8 -8 -8
2 2 2 2 2 2 2 1 1 1 0 0 0 -0 -1 -1 -1 -2 -2 -3 -3 -3 -4 -4 -4 -5 -5 -6 -6 -6 -6 -7 -7 -7 -8 -8 -8 -8 -8 -8 -8 -8 -8 -8
2 2 2 1 1 1 1 1 0 0 -0 -0 -1 -1 -1 -2 -2 -2 -3 -3 -3 -4 -4 -5 -5 -5 -6 -6 -6 -7 -7 -7 -8 -8 -8 -8 -8 -8 -8 -8 -9 -9 -9 -8
1 1 1 1 1 1 1 0 0 -0 -0 -1 -1 -1 -2 -2 -3 -3 -3 -4 -4 -4 -5 -5 -5 -6 -6 -6 -7 -7 -7 -8 -8 -8 -8 -9 -9 -9 -9 -9 -9 -9 -9 -9
1 1 1 0 0 0 0 -0 -0 -1 -1 -1 -1 -2 -2 -3 -3 -3 -4 -4 -4 -5 -5 -6 -6 -6 -7 -7 -7 -8 -8 -8 -8 -8 -9 -9 -9 -9 -9 -9 -9 -9 -9 -9
Wind_Speed
2 3 1 2 3 3 3 3 4 4 4 4 3 3 2 3 5 6 7 7 8 7 7 8 8 8 8 8 7 7 7 7 7 6 5 5 5 4 3 3 3 2 2 2
4 3 2 2 3 2 1 2 5 5 2 3 3 3 3 3 4 5 5 5 6 6 6 7 7 7 7 7 7 7 7 7 6 6 6 6 5 5 5 4 3 3 3 3
2 5 4 4 4 2 1 2 5 5 5 5 4 4 4 3 3 3 2 3 4 4 5 5 6 6 6 6 6 7 7 7 7 6 6 6 6 6 5 5 4 4 4 4
1 3 1 5 3 2 3 1 2 4 5 7 6 4 3 3 4 3 2 2 2 3 4 4 5 5 5 5 6 7 7 7 7 6 6 6 6 6 6 5 5 4 5 5
1 1 4 6 3 3 3 2 3 6 7 6 6 4 1 1 3 4 3 2 1 1 2 3 4 4 5 6 6 7 7 7 7 6 6 7 7 6 5 5 5 5 5 5
2 1 4 5 2 2 3 3 4 7 9 8 7 3 4 4 4 3 3 2 2 2 3 4 4 3 5 6 6 7 6 6 6 6 6 6 6 6 5 5 5 6 6 6
2 3 7 6 2 4 3 6 4 7 9 9 8 6 5 6 5 4 3 2 2 3 3 2 2 3 4 5 5 5 5 5 6 6 6 5 6 5 6 6 6 6 7 7
4 4 7 4 6 6 7 2 4 6 7 8 6 5 6 7 6 5 3 2 2 2 2 2 3 3 4 4 4 4 4 5 6 6 6 6 6 6 6 6 6 7 7 7
8 8 5 5 6 5 4 4 4 6 6 8 7 6 6 6 6 5 4 3 2 2 1 2 3 2 3 4 4 4 5 5 5 6 6 6 6 6 6 5 5 6 7 8
5 8 7 6 5 4 5 6 5 6 7 8 8 7 7 6 5 4 3 3 2 2 1 1 2 2 2 3 4 4 5 6 6 6 6 6 6 5 6 6 6 7 7 8
6 7 5 6 8 7 5 5 5 5 6 8 9 7 7 7 6 5 3 3 2 2 1 2 2 2 3 3 4 4 5 5 6 6 6 6 6 6 6 6 7 8 7 7
8 8 7 7 7 7 7 7 7 7 6 6 8 8 7 6 5 5 4 3 2 1 1 2 2 3 3 3 3 4 5 5 5 5 6 6 7 8 9 9 13 14 13 11
7 5 6 5 4 7 8 8 8 8 8 7 6 7 7 5 5 4 4 3 3 3 3 2 2 3 3 3 3 3 4 5 5 5 6 6 7 8 9 10 12 13 14 15
7 4 4 5 6 7 7 7 6 6 6 7 6 6 6 5 4 5 5 5 4 3 3 2 3 3 3 3 3 4 5 6 6 5 6 6 6 7 7 9 10 9 10 14
8 8 8 5 4 5 5 5 6 6 6 6 6 6 7 7 6 6 4 3 3 2 2 2 3 4 3 3 3 4 4 4 5 5 6 6 6 7 7 8 8 9 9 9
5 5 5 6 7 7 6 7 8 8 8 7 7 7 7 7 5 4 3 3 3 3 3 3 4 4 3 3 3 4 4 8 7 6 6 6 6 6 7 7 8 8 8 8
5 6 6 7 8 8 8 9 9 9 8 8 8 7 6 5 4 4 3 3 3 3 3 3 4 3 3 3 3 3 4 6 9 7 6 6 6 7 7 7 7 8 8 9
11 11 9 8 8 9 9 8 8 8 8 8 7 7 7 7 6 5 4 2 2 2 3 3 3 2 3 3 3 3 4 5 5 6 6 6 6 6 6 7 8 9 8 9
8 9 9 9 8 9 9 8 8 8 7 7 8 8 7 6 5 4 3 3 3 3 3 3 3 2 3 4 4 3 4 5 6 6 6 8 8 6 6 7 7 8 8 8
6 6 6 6 6 6 7 7 7 7 7 7 8 7 6 5 5 4 4 4 4 3 3 2 1 2 3 4 5 3 4 5 6 6 6 5 6 7 7 7 7 8 8 7
5 5 5 5 5 5 6 7 7 7 7 8 8 8 7 5 5 4 4 3 3 2 2 2 1 2 3 4 4 3 4 5 5 5 6 6 6 7 7 7 7 7 7 7
4 4 5 5 5 4 4 5 6 7 7 7 7 6 6 5 5 4 4 3 3 2 1 2 2 4 4 4 2 3 4 5 5 5 5 5 6 6 7 7 7 7 7 7
4 4 4 5 6 5 4 4 6 7 7 7 7 7 6 5 5 4 3 3 2 2 1 2 3 5 5 3 2 3 4 4 5 5 5 5 6 6 6 7 7 7 6 7
4 4 4 4 5 5 5 5 5 5 5 5 5 6 6 4 3 3 2 2 2 2 1 3 4 5 4 2 2 3 4 4 5 5 5 5 5 5 6 6 6 6 6 7
4 4 4 6 6 6 6 5 5 4 5 4 4 4 4 4 4 3 2 2 2 1 1 2 4 4 2 2 3 4 4 5 5 5 5 5 5 5 6 5 5 6 6 6
5 5 5 6 5 5 5 6 5 5 5 4 4 4 3 3 3 3 2 2 2 1 1 1 2 3 2 3 3 4 4 5 5 5 5 5 6 6 6 6 7 6 6 6
4 4 3 3 3 5 5 6 6 6 6 6 5 4 4 3 3 3 3 2 2 1 2 2 2 2 3 3 3 4 4 4 4 5 5 5 5 5 6 7 6 6 6 6
Wind_Direction
285 276 273 334 339 12 70 138 144 158 155 182 175 142 112 87 74 63 53 46 42 37 31 30 31 30 30 29 28 32 38 36 28 22 24 24 20 19 18 16 3 348 331 318
348 350 7 347 332 351 46 106 124 128 153 178 150 117 99 92 88 72 56 47 42 41 35 28 27 26 25 25 22 31 37 32 25 22 21 19 13 10 9 3 353 347 332 318
312 326 13 324 283 235 176 161 157 180 195 158 139 141 152 140 121 115 91 63 50 40 33 24 19 23 23 16 19 30 33 26 20 16 15 10 5 6 360 353 350 341 327 310
350 26 284 258 276 202 165 225 182 159 159 163 161 156 148 150 146 137 118 83 50 37 30 20 19 23 22 24 27 30 26 18 11 10 7 1 4 1 351 345 342 332 320 309
101 305 281 285 262 176 161 251 211 167 162 157 138 100 1 223 162 157 150 129 90 50 42 32 24 18 29 29 25 26 17 9 1 359 358 357 356 349 341 337 333 323 315 308
126 205 243 249 227 178 115 265 219 173 170 167 151 171 231 195 159 139 120 106 91 62 49 40 15 20 40 26 22 14 1 355 353 356 354 347 339 332 327 325 319 317 313 307
179 238 264 247 197 117 167 242 194 172 174 172 184 200 176 151 148 142 129 116 101 83 60 27 6 34 39 23 6 346 345 350 354 353 346 336 331 327 322 321 319 315 309 305
174 213 258 211 148 183 216 215 160 169 173 171 171 146 143 150 150 148 137 121 110 94 56 9 13 35 28 0 334 338 348 351 347 343 340 341 336 330 327 325 321 316 314 311
199 219 249 208 206 216 181 180 183 172 171 158 156 164 163 163 163 164 159 155 141 124 71 7 7 28 13 334 336 347 351 344 337 335 334 335 332 328 328 327 323 318 316 312
253 261 252 241 234 221 197 194 188 174 167 163 167 171 171 171 175 176 176 170 155 132 93 340 338 351 332 326 341 353 347 338 334 332 329 329 327 324 324 324 320 315 313 310
253 266 274 256 225 213 199 183 171 168 172 173 167 173 177 180 184 185 184 181 168 174 213 278 311 332 339 344 354 349 338 331 328 326 322 321 320 313 311 298 301 309 305 302
229 225 207 239 224 197 188 194 186 175 176 177 175 177 176 182 186 184 186 182 186 210 248 280 301 310 321 332 342 336 329 326 323 322 322 323 321 318 312 309 313 313 308 306
224 222 214 244 222 193 193 196 190 185 183 184 185 178 174 179 183 182 187 192 205 221 236 255 275 287 301 315 325 320 314 315 315 317 318 319 319 318 318 320 319 317 316 317
229 212 232 226 219 205 197 193 184 182 185 180 177 171 169 171 176 187 202 208 206 209 228 243 260 274 284 299 309 307 305 307 310 304 305 306 307 307 307 311 316 317 318 319
236 217 219 221 207 192 180 169 172 185 182 179 174 172 174 179 190 201 203 189 182 203 230 247 263 275 289 299 304 304 306 304 303 301 301 300 300 302 303 304 305 308 313 318
252 235 215 206 205 198 185 185 191 198 192 187 185 188 187 185 184 182 177 170 182 220 238 253 264 274 288 293 300 299 299 307 313 307 303 301 301 302 305 306 307 308 310 311
220 226 215 214 212 208 203 201 200 198 193 192 194 185 169 162 166 182 195 199 205 224 239 249 263 281 287 287 287 287 291 303 311 307 300 300 301 300 302 304 305 307 306 308
224 225 216 208 208 209 210 205 199 193 194 195 178 164 167 177 191 200 201 194 208 250 256 254 262 272 281 286 284 283 289 293 298 299 299 301 302 300 301 303 305 307 308 312
233 227 221 214 207 202 202 202 198 194 185 171 168 176 183 188 190 188 177 180 208 244 264 270 282 281 282 288 300 283 290 295 298 298 298 306 309 304 304 306 307 309 311 314
243 229 217 211 201 194 196 192 183 178 175 169 167 169 175 183 180 176 176 200 221 232 244 261 266 276 281 284 300 286 291 295 298 299 302 301 302 305 307 309 310 311 312 313
249 231 211 201 197 191 185 178 173 174 171 167 171 178 182 182 175 171 177 215 238 227 222 260 267 275 279 293 303 291 291 295 297 298 302 304 305 307 310 313 312 313 314 316
247 226 209 192 179 181 177 168 166 165 163 167 171 170 169 173 177 184 199 209 214 213 207 237 259 282 299 308 296 291 292 295 297 299 301 303 305 307 309 309 309 312 313 313
239 216 198 187 179 169 156 160 165 168 171 174 176 177 179 182 181 185 212 210 198 226 223 242 277 296 308 311 293 291 294 294 296 300 302 302 301 302 304 306 307 309 311 313
223 203 190 170 150 153 168 180 171 170 170 173 177 176 169 169 187 202 189 186 209 233 228 271 294 302 313 310 291 289 290 291 292 292 295 297 298 300 300 303 306 309 309 312
210 194 177 168 175 184 180 167 157 159 162 169 173 172 171 173 179 182 172 186 213 224 245 281 296 306 311 290 287 287 288 288 290 297 298 299 300 300 299 301 303 305 305 306
201 199 200 198 192 180 171 170 176 177 174 177 178 173 164 154 151 154 162 176 200 232 244 263 281 293 290 288 288 291 292 298 306 306 300 299 298 299 298 298 298 298 298 299
199 194 188 191 190 180 177 179 184 188 186 182 179 175 168 163 160 162 164 171 192 222 243 259 272 280 284 286 289 293 296 297 297 296 295 293 293 294 298 298 296 296 296 297
Height
1471 1468 1467 1466 1464 1462 1463 1465 1468 1468 1468 1468 1467 1467 1467 1466 1465 1464 1462 1461 1459 1458 1457 1456 1455 1454 1453 1452 1451 1451 1450 1450 1450 1449 1449 1448 1448 1447 1447 1447 1447 1447 1446 1446
1473 1468 1468 1467 1465 1464 1463 1463 1465 1467 1469 1467 1467 1468 1468 1467 1467 1466 1465 1464 1463 1462 1460 1459 1458 1457 1455 1454 1453 1452 1451 1451 1450 1449 1448 1447 1446 1445 1445 1445 1444 1444 1443 1442
1480 1474 1471 1471 1466 1464 1463 1462 1464 1466 1467 1467 1468 1468 1468 1468 1468 1468 1467 1467 1466 1464 1463 1462 1460 1459 1457 1456 1455 1454 1452 1451 1450 1449 1448 1446 1445 1444 1443 1442 1441 1440 1439 1439
1483 1479 1478 1470 1463 1462 1463 1462 1461 1462 1464 1465 1466 1468 1468 1469 1468 1468 1468 1467 1467 1466 1465 1463 1462 1461 1459 1458 1456 1454 1453 1451 1450 1449 1447 1445 1444 1442 1441 1440 1438 1437 1436 1435
1485 1483 1477 1467 1462 1462 1464 1464 1462 1462 1464 1466 1467 1469 1469 1469 1469 1469 1468 1468 1467 1466 1466 1464 1463 1461 1460 1458 1456 1454 1453 1451 1449 1447 1446 1444 1442 1440 1439 1437 1436 1434 1433 1431
1484 1479 1473 1464 1460 1460 1463 1464 1459 1460 1462 1465 1467 1471 1469 1468 1468 1468 1468 1468 1467 1467 1466 1464 1463 1462 1460 1458 1456 1454 1453 1451 1449 1447 1445 1443 1441 1439 1437 1435 1433 1431 1429 1427
1483 1481 1473 1461 1459 1461 1469 1462 1456 1457 1459 1461 1463 1464 1465 1466 1467 1467 1468 1467 1467 1466 1465 1464 1463 1462 1460 1458 1456 1454 1452 1450 1448 1446 1444 1441 1439 1437 1435 1432 1430 1427 1425 1423
1482 1481 1472 1457 1458 1461 1458 1454 1454 1455 1457 1459 1460 1462 1463 1464 1465 1466 1466 1466 1466 1465 1464 1463 1462 1460 1459 1457 1455 1453 1451 1449 1447 1444 1442 1439 1437 1434 1432 1429 1427 1424 1421 1419
1471 1465 1456 1453 1453 1453 1453 1453 1453 1454 1455 1457 1459 1460 1461 1463 1464 1464 1465 1465 1464 1464 1463 1462 1460 1459 1457 1455 1453 1451 1449 1447 1445 1442 1440 1437 1435 1432 1429 1426 1424 1421 1418 1415
1464 1456 1452 1451 1450 1450 1451 1451 1452 1453 1454 1456 1457 1458 1459 1461 1462 1462 1462 1462 1462 1462 1461 1460 1458 1457 1455 1453 1451 1449 1446 1444 1442 1440 1437 1434 1432 1429 1426 1423 1420 1418 1415 1412
1459 1452 1449 1447 1447 1448 1449 1450 1450 1451 1453 1454 1455 1456 1457 1458 1459 1459 1460 1460 1459 1459 1458 1457 1456 1455 1453 1451 1449 1446 1444 1442 1439 1437 1434 1431 1428 1426 1422 1420 1418 1415 1411 1408
1452 1445 1445 1443 1443 1445 1446 1446 1448 1449 1450 1451 1452 1453 1454 1455 1456 1457 1457 1457 1457 1456 1456 1455 1454 1452 1451 1449 1446 1444 1441 1439 1436 1433 1430 1427 1424 1422 1419 1417 1414 1411 1408 1405
1441 1441 1441 1440 1440 1441 1442 1444 1445 1446 1447 1448 1449 1451 1452 1452 1453 1454 1454 1454 1454 1454 1453 1452 1451 1449 1448 1446 1444 1441 1439 1436 1433 1430 1427 1424 1421 1418 1414 1411 1409 1406 1403 1400
1438 1438 1437 1437 1437 1438 1439 1441 1442 1443 1444 1445 1447 1448 1449 1450 1451 1451 1451 1452 1451 1451 1450 1449 1448 1446 1444 1443 1440 1438 1436 1433 1430 1427 1424 1421 1418 1415 1411 1407 1403 1400 1398 1395
1433 1433 1433 1433 1434 1435 1436 1437 1438 1439 1440 1442 1443 1444 1445 1446 1447 1448 1448 1448 1448 1447 1446 1445 1444 1443 1441 1439 1437 1435 1432 1429 1427 1423 1420 1417 1414 1411 1408 1404 1400 1396 1393 1390
1428 1428 1428 1429 1429 1430 1431 1432 1433 1434 1436 1437 1439 1440 1441 1442 1443 1444 1444 1444 1444 1443 1443 1441 1440 1439 1437 1435 1433 1431 1428 1426 1423 1419 1416 1413 1410 1407 1404 1400 1396 1393 1389 1386
1424 1422 1423 1423 1424 1425 1426 1427 1429 1430 1432 1433 1435 1436 1437 1439 1439 1440 1440 1440 1440 1440 1439 1437 1436 1435 1433 1431 1429 1427 1424 1421 1419 1415 1412 1409 1406 1403 1400 1397 1393 1390 1386 1383
1416 1417 1418 1418 1419 1420 1421 1423 1424 1426 1427 1429 1431 1432 1433 1434 1435 1436 1436 1436 1436 1436 1435 1433 1432 1431 1429 1427 1425 1422 1420 1417 1415 1412 1409 1406 1403 1400 1397 1393 1390 1386 1383 1380
1410 1411 1412 1413 1414 1415 1417 1418 1419 1421 1423 1425 1427 1428 1429 1431 1432 1432 1433 1433 1432 1431 1431 1429 1428 1426 1425 1423 1421 1418 1416 1413 1410 1408 1405 1402 1399 1396 1393 1390 1386 1383 1379 1376
1405 1406 1407 1408 1409 1411 1412 1413 1415 1417 1419 1421 1422 1424 1425 1426 1428 1428 1428 1428 1428 1427 1426 1425 1424 1422 1420 1418 1416 1414 1412 1409 1406 1403 1401 1398 1395 1392 1389 1386 1383 1379 1376 1373
1401 1402 1402 1403 1405 1406 1408 1410 1411 1413 1415 1416 1418 1419 1421 1422 1423 1424 1424 1424 1424 1423 1422 1421 1419 1418 1416 1414 1412 1410 1407 1405 1402 1399 1397 1394 1391 1388 1385 1382 1379 1376 1373 1370
1399 1398 1398 1399 1401 1402 1404 1406 1408 1409 1411 1413 1414 1416 1417 1418 1419 1419 1420 1420 1419 1419 1418 1416 1415 1413 1412 1410 1408 1405 1403 1400 1398 1395 1392 1390 1387 1384 1381 1379 1376 1373 1371 1368
1396 1395 1396 1397 1398 1399 1401 1403 1404 1406 1407 1409 1411 1412 1413 1414 1414 1415 1415 1415 1415 1414 1413 1412 1411 1409 1407 1405 1403 1401 1398 1396 1393 1391 1388 1386 1383 1380 1378 1375 1373 1370 1368 1365
1393 1393 1393 1394 1395 1396 1397 1399 1401 1402 1404 1406 1407 1408 1409 1410 1410 1411 1411 1411 1410 1410 1408 1407 1406 1404 1402 1400 1398 1396 1394 1391 1389 1387 1384 1382 1379 1377 1374 1372 1369 1367 1365 1362
1390 1390 1391 1391 1392 1393 1395 1396 1397 1399 1400 1402 1403 1404 1405 1405 1406 1406 1406 1406 1406 1405 1404 1403 1401 1399 1398 1396 1394 1392 1389 1387 1385 1382 1380 1378 1375 1373 1370 1368 1366 1364 1361 1359
1386 1387 1387 1388 1389 1390 1391 1392 1393 1395 1396 1397 1398 1400 1400 1401 1401 1402 1402 1401 1401 1400 1399 1398 1396 1395 1393 1391 1389 1387 1385 1383 1380 1378 1376 1374 1371 1369 1367 1364 1362 1360 1358 1356
1382 1383 1383 1384 1385 1386 1387 1388 1390 1391 1392 1393 1394 1395 1396 1396 1397 1397 1397 1397 1396 1395 1394 1393 1392 1390 1388 1387 1385 1383 1381 1379 1376 1374 1372 1370 1367 1365 1363 1361 1359 1357 1355 1353